Regional Weather Roundup
Issued by NWS

Home | Current Version | Previous Version | Graphics & Text | Print | Product List | Glossary Off
Versions: 1 2 3 4 5 6 7 8 9 10 11 12 13 14 15 16 17 18 19 20 21 22 23 24 25 26 27 28 29 30 31 32 33 34 35 36 37 38 39 40 41 42 43 44 45 46 47 48 49 50

091
ASUS43 KMPX 262001
RWRMN
WEATHER ROUNDUP FOR MINNESOTA
NATIONAL WEATHER SERVICE TWIN CITIES/CHANHASSEN MN
300 PM CDT THU MAY 26 2016


NOTE: "FAIR" INDICATES FEW OR NO CLOUDS BELOW 12,000 FEET WITH NO
SIGNIFICANT WEATHER AND/OR OBSTRUCTIONS TO VISIBILITY. N/A MEANS
CURRENT SKY AND/OR WEATHER CONDITIONS ARE NOT AVAILABLE.

MNZ060>063-068>070-262100-
   Twin Cities Metro

CITY           SKY/WX    TMP DP  RH WIND       PRES   REMARKS
TWIN CITIES    FAIR      80  50  34 W10G20    29.81F
ST PAUL        FAIR      80  55  42 W13G20    29.81S
CRYSTAL        FAIR      79  53  40 W12G20    29.80F
BLAINE         MOSUNNY   79  55  44 W12G21    29.81S
EDEN PRAIRIE   FAIR      82  53  36 W10       29.81F
SOUTH ST PAUL  FAIR      79  50  35 W13G20    29.81S
LAKE ELMO      FAIR      79  54  41 W13G21    29.82S
$$
MNZ001>005-007-008-013>017-022>024-027-028-262100-
   Northwest Minnesota

CITY           SKY/WX    TMP DP  RH WIND       PRES   REMARKS
BEMIDJI        FAIR      72  53  51 W9        29.77R
HALLOCK        PTSUNNY   68  55  64 W18       29.71S
ROSEAU         FAIR      70  57  64 SW20G26   29.72S
WARROAD        PTSUNNY   68  59  73 W15G22    29.72S
THIEF RVR FALL CLOUDY    66  55  68 W14       29.77R
CROOKSTON      PTSUNNY   68  57  68 W14G22    29.77R
FOSSTON        PTSUNNY   66  61  82 SW16G22   29.78R
DETROIT LAKES  PTSUNNY   66  55  68 W10       29.82S
MOORHEAD       FAIR      70  57  64 W13G28    29.80S
PARK RAPIDS    FAIR      72  52  49 SW15G21   29.79S
MAHNOMEN       CLOUDY    66  58  75 SW14      29.78S
$$
MNZ006-009>011-018-025>026-262100-
   North Central Minnesota

CITY           SKY/WX    TMP DP  RH WIND       PRES   REMARKS
BAUDETTE       FAIR      72  53  51 W14G22    29.72S
FLAG ISLAND    CLOUDY    64  55  72 SW9       29.70F HAZE
INTL FALLS     FAIR      74  54  49 W8        29.73F
WASKISH        FAIR      70  57  64 SW10      29.76S
BIG FORK       FAIR      75  52  43 W6        29.75F
LONGVILLE      FAIR      75  52  43 SW9       29.77S
GRAND RAPIDS   FAIR      73  56  54 VRB5      29.77F
CRANE LAKE     PTSUNNY   66  55  68 W3        29.79S
ORR            FAIR      72  52  49 CALM      29.75S
COOK           PTSUNNY   68  55  64 S7        29.79S
WALKER         MOCLDY    71  55  56 SW13G21   29.77R
$$
MNZ012-019>021-037-262100-
   Northeast Minnesota

CITY           SKY/WX    TMP DP  RH WIND       PRES   REMARKS
DULUTH         FAIR      65  56  72 CALM      29.81S
ELY            FAIR      72  54  53 SW7       29.78S
HIBBING        FAIR      67  57  70 CALM      29.78F
EVELETH        PTSUNNY   66  55  68 W3        29.81R
DULUTH HARBOR  CLOUDY    48  46  93 NE7       29.83S
TWO HARBORS    CLOUDY    61  55  82 SE3       29.81R
SILVER BAY     CLOUDY    55  54  94 NE3       29.81S
GRAND MARAIS     N/A     47  46  97 CALM      29.82F
G MARAIS ARPRT CLOUDY    57  52  82 CALM      29.82F
$$
MNZ029>031-032-039>041-046>048-054>057-064-262100-
   West Central Minnesota

CITY           SKY/WX    TMP DP  RH WIND       PRES   REMARKS
FERGUS FALLS   FAIR      73  48  40 W14G22    29.77F
WHEATON        FAIR      79  52  38 W14       29.82S
MORRIS         FAIR      75  46  35 NW15G21   29.81S
ALEXANDRIA     FAIR      76  46  34 W14G22    29.83F
ELBOW LAKE     FAIR      76  47  34 NW16G25   29.82S
WADENA         FAIR      73  52  46 W14G21    29.81R
GLENWOOD       FAIR      77  46  33 W16G24    29.84S
APPLETON       FAIR      81  41  24 W15G21    29.81F
BENSON         FAIR      81  37  21 NW18G26   29.83R
ORTONVILLE     FAIR      79  45  29 W13G18    29.82F
MADISON        FAIR      79  46  31 W13       29.82F
WILLMAR        FAIR      79  45  29 W16       29.83F
$$
MNZ033>034-036-042>043-049>051-058-059-262100-
   Central Minnesota

CITY           SKY/WX    TMP DP  RH WIND       PRES   REMARKS
ST CLOUD       FAIR      79  47  32 W18G24    29.81S
SAUK CENTRE    FAIR      75  49  40 W12G20    29.83R
PAYNESVILLE    FAIR      79  43  27 W15G22    29.84S
AITKIN         FAIR      79  48  34 SW12G17   29.77R
PINE RIVER     FAIR      72  55  56 SW10G16   29.82R
BRAINERD       FAIR      75  50  41 W16       29.80R
STAPLES        FAIR      73  52  46 W10G21    29.81S
LONG PRAIRIE   FAIR      73  46  38 SW14G22   29.83S
LITTLE FALLS   FAIR      73  45  35 W10G17    29.81F
LITCHFIELD     FAIR      77  50  38 W10G18    29.83F
BUFFALO        FAIR      76  53  44 W8        29.83F
MAPLE LAKE     FAIR      77  56  48 SW10      29.84S
HUTCHINSON     FAIR      76  53  43 W10       29.84F
$$
MNZ037-044-045-052-053-262100-
   East Central Minnesota

CITY           SKY/WX    TMP DP  RH WIND       PRES   REMARKS
PRINCETON      FAIR      81  54  39 W10G21    29.81S
MORA           FAIR      73  54  49 SW12      29.81R
CAMBRIDGE        N/A     81  59  47 W9G16     29.79S
RUSH CITY      FAIR      78  55  44 W12       29.80S
MOOSE LAKE     PTSUNNY   73  59  60 CALM      29.76S
HINCKLEY       FAIR      77  57  50 W9        29.79S
CLOQUET        FAIR      66  57  72 E5        29.80S
MCGREGOR       FAIR      73  54  49 SW10      29.78R
$$
MNZ071>073-080-081-089-090-097-098-262100-
   Southwest Minnesota

CITY           SKY/WX    TMP DP  RH WIND       PRES   REMARKS
MONTEVIDEO     FAIR      82  45  26 NW7G21    29.83F
GRANITE FALLS  FAIR      82  48  29 W14       29.83F
CANBY          FAIR      81  51  35 SW13      29.85F
MARSHALL       FAIR      78  48  34 NW8G20    29.85R
REDWOOD FALLS  FAIR      80  49  33 W12G20    29.83F
OLIVIA         FAIR      77  46  33 W13G21    29.82F
PIPESTONE        N/A    N/A N/A N/A W5        29.88S
WINDOM         FAIR      79  48  34 CALM      29.88S
WORTHINGTON    FAIR      75  54  47 SW9       29.88F
JACKSON        FAIR      75  45  33 W7        29.89F
TRACY          FAIR      80  49  34 W6        29.86R
SLAYTON        FAIR      74  46  36 W5        29.89S
$$
MNZ065>067-074>077-082>085-091>093-262100-
   South Central Minnesota

CITY           SKY/WX    TMP DP  RH WIND       PRES   REMARKS
MANKATO        FAIR      75  54  46 NW7       29.86S
NEW ULM        FAIR      79  48  34 NW7       29.85R
ST JAMES       FAIR      72  45  37 CALM      29.87S
FAIRMONT       FAIR      77  52  41 W7        29.87S
GLENCOE        FAIR      77  55  47 W8        29.83F
FARIBAULT      FAIR      77  55  47 W9        29.85F
OWATONNA       FAIR      79  52  38 SW7       29.87S
WASECA         FAIR      77  52  41 SW14      29.88S
ALBERT LEA     FAIR      77  54  44 SW3       29.87F
$$
MNZ078>079-086>088-094>096-262100-
   Southeast Minnesota

CITY           SKY/WX    TMP DP  RH WIND       PRES   REMARKS
ROCHESTER      FAIR      77  63  61 SW18      29.88S
RED WING       FAIR      82  46  28 W15       29.82R
STANTON        FAIR      78  52  39 W10G18    29.83S
DODGE CENTER   FAIR      79  54  41 SW13      29.88S
WINONA         FAIR      79  59  50 W9G16     29.84S
AUSTIN         FAIR      77  55  47 SW9G17    29.87F
PRESTON          N/A    N/A N/A N/A MISG        N/A
$$
ABBREVIATIONS USED IN REMARKS
   TC - TEMPERATURES IN CELSIUS
  WCI - WIND CHILL INDEX
   HX - HEAT INDEX
  VSB - VISIBILITY
$$




USA.gov is the U.S. government's official web portal to all federal, state and local government web resources and services.